IGO702 VOBL-VOTV

Flight info

Callsign IGO702
Flight time 0h 56m
Altitude 38000
Route AKTIM7B AKTIM W118 CCB W43 DODSI Q13 TUMLA DINKA
Aircraft A20N/M-SDE2E3FGHIRWXY/LB1

Departure

Time 2026-05-05 16:29
Airport Kempegowda International Airport Bengaluru (VOBL)

Arrival

Time 2026-05-05 17:25
Airport Thiruvananthapuram International Airport (VOTV)
Time Latitude Longitude Altitude Speed Heading
2026-05-05 16:06 13.20065 77.72259 2947 ft 0 kts 90°
2026-05-05 16:21 13.20065 77.72235 2945 ft 2 kts 90°
2026-05-05 16:22 13.20061 77.72195 2946 ft 2 kts 54°
2026-05-05 16:22 13.20037 77.72180 2947 ft 0 kts
2026-05-05 16:23 13.20029 77.72180 2947 ft 0 kts 359°
2026-05-05 16:25 13.20031 77.72180 2947 ft 1 kts 359°
2026-05-05 16:25 13.20093 77.72180 2946 ft 8 kts
2026-05-05 16:25 13.20169 77.72181 2944 ft 13 kts
2026-05-05 16:26 13.20386 77.72182 2939 ft 13 kts 359°
2026-05-05 16:26 13.20499 77.72285 2933 ft 13 kts 355°
2026-05-05 16:27 13.20566 77.72283 2931 ft 0 kts
2026-05-05 16:27 13.20569 77.72283 2931 ft 1 kts
2026-05-05 16:27 13.20602 77.72284 2930 ft 8 kts
2026-05-05 16:28 13.20677 77.72249 2927 ft 15 kts 296°
2026-05-05 16:28 13.20688 77.72021 2931 ft 62 kts 270°
2026-05-05 16:28 13.20691 77.71348 2929 ft 124 kts 270°
2026-05-05 16:28 13.20701 77.70276 2984 ft 171 kts 270°
2026-05-05 16:29 13.20715 77.69003 3311 ft 184 kts 271°
2026-05-05 16:29 13.20959 77.67714 3841 ft 187 kts 298°
2026-05-05 16:29 13.21728 77.66663 4454 ft 187 kts 309°
2026-05-05 16:29 13.22489 77.65598 4849 ft 190 kts 304°
2026-05-05 16:30 13.23233 77.64431 5078 ft 201 kts 302°
2026-05-05 16:30 13.23992 77.63158 5321 ft 213 kts 300°
2026-05-05 16:30 13.24715 77.61781 5567 ft 227 kts 289°
2026-05-05 16:30 13.24744 77.60157 5737 ft 242 kts 248°
2026-05-05 16:31 13.23701 77.58781 5981 ft 255 kts 210°
2026-05-05 16:31 13.21953 77.58265 6283 ft 267 kts 179°
2026-05-05 16:31 13.20048 77.58405 6623 ft 281 kts 173°
2026-05-05 16:31 13.18081 77.58594 7154 ft 288 kts 174°
2026-05-05 16:32 13.16054 77.58733 7735 ft 291 kts 176°
2026-05-05 16:32 13.14030 77.58815 8260 ft 294 kts 178°
2026-05-05 16:32 13.11955 77.58861 8773 ft 298 kts 178°
2026-05-05 16:32 13.09881 77.58881 9284 ft 301 kts 179°
2026-05-05 16:33 13.07781 77.58888 9828 ft 304 kts 179°
2026-05-05 16:33 13.05627 77.58887 10280 ft 311 kts 179°
2026-05-05 16:33 13.03417 77.58880 10532 ft 325 kts 180°
2026-05-05 16:33 13.01094 77.58869 10939 ft 333 kts 180°
2026-05-05 16:34 12.98774 77.58856 11478 ft 336 kts 180°
2026-05-05 16:34 12.96434 77.58842 12043 ft 339 kts 180°
2026-05-05 16:34 12.94041 77.58826 12621 ft 341 kts 180°
2026-05-05 16:34 12.91662 77.58812 13196 ft 344 kts 180°
2026-05-05 16:35 12.89261 77.58797 13779 ft 346 kts 180°
2026-05-05 16:35 12.86824 77.58782 14379 ft 348 kts 180°
2026-05-05 16:35 12.84408 77.58768 14959 ft 350 kts 180°
2026-05-05 16:35 12.81945 77.58755 15533 ft 351 kts 180°
2026-05-05 16:36 12.79502 77.58740 16103 ft 354 kts 181°
2026-05-05 16:36 12.77039 77.58725 16667 ft 356 kts 181°
2026-05-05 16:36 12.74534 77.58710 17226 ft 358 kts 181°
2026-05-05 16:36 12.72050 77.58694 17765 ft 360 kts 181°
2026-05-05 16:37 12.69546 77.58677 18271 ft 361 kts 181°
2026-05-05 16:37 12.66999 77.58660 18768 ft 363 kts 181°
2026-05-05 16:37 12.64475 77.58644 19242 ft 365 kts 181°
2026-05-05 16:37 12.61942 77.58628 19707 ft 367 kts 181°
2026-05-05 16:38 12.59351 77.58611 20166 ft 369 kts 181°
2026-05-05 16:38 12.56791 77.58595 20600 ft 371 kts 181°
2026-05-05 16:38 12.54194 77.58579 21027 ft 374 kts 181°
2026-05-05 16:38 12.51590 77.58563 21447 ft 376 kts 181°
2026-05-05 16:39 12.48951 77.58548 21858 ft 378 kts 181°
2026-05-05 16:39 12.46317 77.58532 22251 ft 381 kts 181°
2026-05-05 16:39 12.43652 77.58516 22638 ft 383 kts 181°
2026-05-05 16:39 12.40979 77.58499 23016 ft 385 kts 181°
2026-05-05 16:40 12.38258 77.58482 23405 ft 388 kts 181°
2026-05-05 16:40 12.35556 77.58466 23793 ft 390 kts 181°
2026-05-05 16:40 12.32839 77.58450 24176 ft 392 kts 181°
2026-05-05 16:40 12.30078 77.58433 24556 ft 394 kts 181°
2026-05-05 16:41 12.27329 77.58416 24938 ft 396 kts 181°
2026-05-05 16:41 12.24574 77.58399 25305 ft 399 kts 181°
2026-05-05 16:41 12.21758 77.58382 25669 ft 402 kts 181°
2026-05-05 16:41 12.18954 77.58365 26025 ft 404 kts 181°
2026-05-05 16:42 12.16133 77.58347 26369 ft 407 kts 181°
2026-05-05 16:42 12.13290 77.58330 26718 ft 409 kts 181°
2026-05-05 16:42 12.10446 77.58313 27066 ft 411 kts 181°
2026-05-05 16:42 12.07554 77.58094 27408 ft 413 kts 190°
2026-05-05 16:43 12.04770 77.57401 27748 ft 415 kts 199°
2026-05-05 16:43 12.02108 77.56261 28089 ft 417 kts 206°
2026-05-05 16:43 11.99485 77.54912 28432 ft 419 kts 207°
2026-05-05 16:43 11.96891 77.53544 28759 ft 422 kts 207°
2026-05-05 16:44 11.94283 77.52167 29086 ft 424 kts 207°
2026-05-05 16:44 11.91656 77.50785 29418 ft 426 kts 207°
2026-05-05 16:44 11.89013 77.49400 29749 ft 427 kts 207°
2026-05-05 16:44 11.86331 77.47997 30080 ft 429 kts 207°
2026-05-05 16:45 11.83667 77.46606 30405 ft 430 kts 207°
2026-05-05 16:45 11.81007 77.45219 30731 ft 432 kts 207°
2026-05-05 16:45 11.78341 77.43829 31055 ft 433 kts 207°
2026-05-05 16:45 11.75627 77.42415 31377 ft 434 kts 207°
2026-05-05 16:46 11.72948 77.41020 31688 ft 435 kts 207°
2026-05-05 16:46 11.70225 77.39603 32045 ft 435 kts 207°
2026-05-05 16:46 11.67553 77.38212 32452 ft 433 kts 207°
2026-05-05 16:46 11.64859 77.36809 32864 ft 431 kts 207°
2026-05-05 16:47 11.62208 77.35430 33270 ft 429 kts 207°
2026-05-05 16:47 11.59569 77.34057 33663 ft 428 kts 206°
2026-05-05 16:47 11.56889 77.32662 34053 ft 426 kts 206°
2026-05-05 16:47 11.54263 77.31296 34436 ft 425 kts 206°
2026-05-05 16:48 11.51644 77.29933 34811 ft 424 kts 206°
2026-05-05 16:48 11.48992 77.28554 35175 ft 423 kts 206°
2026-05-05 16:48 11.46374 77.27192 35509 ft 423 kts 206°
2026-05-05 16:48 11.43727 77.25816 35826 ft 423 kts 206°
2026-05-05 16:49 11.41108 77.24456 36111 ft 424 kts 206°
2026-05-05 16:49 11.38490 77.23100 36364 ft 425 kts 206°
2026-05-05 16:49 11.35820 77.21719 36598 ft 426 kts 206°
2026-05-05 16:49 11.33177 77.20351 36822 ft 428 kts 206°
2026-05-05 16:50 11.30527 77.18979 37013 ft 429 kts 206°
2026-05-05 16:50 11.27865 77.17600 37204 ft 431 kts 206°
2026-05-05 16:50 11.25165 77.16202 37398 ft 431 kts 206°
2026-05-05 16:50 11.22490 77.14816 37586 ft 432 kts 206°
2026-05-05 16:51 11.19812 77.13429 37758 ft 433 kts 206°
2026-05-05 16:51 11.17130 77.12040 37909 ft 435 kts 205°
2026-05-05 16:51 11.11661 77.09222 38012 ft 443 kts 204°
2026-05-05 16:52 11.05908 77.06831 37998 ft 450 kts 197°
2026-05-05 16:52 10.99787 77.05199 37994 ft 456 kts 189°
2026-05-05 16:53 10.93462 77.04402 37953 ft 456 kts 182°
2026-05-05 16:53 10.87097 77.04081 37939 ft 456 kts 181°
2026-05-05 16:54 10.80768 77.03780 37943 ft 456 kts 181°
2026-05-05 16:54 10.74394 77.03471 37940 ft 456 kts 181°
2026-05-05 16:55 10.68064 77.03163 37942 ft 456 kts 181°
2026-05-05 16:55 10.61698 77.02853 37945 ft 456 kts 181°
2026-05-05 16:56 10.55371 77.02544 37947 ft 456 kts 181°
2026-05-05 16:56 10.49027 77.02234 37949 ft 455 kts 181°
2026-05-05 16:57 10.42657 77.01923 37967 ft 455 kts 181°
2026-05-05 16:57 10.36337 77.01615 38002 ft 454 kts 181°
2026-05-05 16:58 10.33218 77.01462 37897 ft 444 kts 181°
2026-05-05 16:58 10.30135 77.01311 37696 ft 434 kts 181°
2026-05-05 16:58 10.27146 77.01165 37499 ft 428 kts 181°
2026-05-05 16:58 10.24140 77.01019 37292 ft 427 kts 181°
2026-05-05 16:59 10.21198 77.00875 36887 ft 424 kts 181°
2026-05-05 16:59 10.18249 77.00732 36326 ft 424 kts 181°
2026-05-05 16:59 10.15320 77.00590 35844 ft 421 kts 181°
2026-05-05 16:59 10.12379 77.00447 35403 ft 417 kts 181°
2026-05-05 17:00 10.09489 77.00307 34805 ft 416 kts 181°
2026-05-05 17:00 10.06601 77.00167 34121 ft 417 kts 182°
2026-05-05 17:00 10.03666 77.00025 33389 ft 420 kts 182°
2026-05-05 17:00 10.00748 76.99881 32656 ft 422 kts 182°
2026-05-05 17:01 9.97817 76.99737 31878 ft 424 kts 182°
2026-05-05 17:01 9.94869 76.99593 31105 ft 426 kts 182°
2026-05-05 17:01 9.91887 76.99447 30475 ft 423 kts 182°
2026-05-05 17:01 9.88972 76.99306 29890 ft 419 kts 182°
2026-05-05 17:02 9.86071 76.99167 29298 ft 416 kts 182°
2026-05-05 17:02 9.83151 76.99027 28691 ft 413 kts 182°
2026-05-05 17:02 9.80291 76.98891 28120 ft 411 kts 182°
2026-05-05 17:02 9.77450 76.98756 27565 ft 408 kts 182°
2026-05-05 17:03 9.74624 76.98621 27041 ft 406 kts 182°
2026-05-05 17:03 9.71793 76.98487 26526 ft 403 kts 182°
2026-05-05 17:03 9.69011 76.98355 26030 ft 399 kts 182°
2026-05-05 17:03 9.66218 76.98222 25535 ft 396 kts 182°
2026-05-05 17:04 9.63482 76.98093 25050 ft 393 kts 182°
2026-05-05 17:04 9.60765 76.97965 24563 ft 390 kts 182°
2026-05-05 17:04 9.58067 76.97836 24076 ft 387 kts 182°
2026-05-05 17:04 9.55391 76.97710 23582 ft 384 kts 182°
2026-05-05 17:05 9.52711 76.97510 23086 ft 382 kts 186°
2026-05-05 17:05 9.50091 76.97150 22599 ft 379 kts 189°
2026-05-05 17:05 9.47520 76.96626 22117 ft 377 kts 193°
2026-05-05 17:05 9.44953 76.96014 21635 ft 374 kts 193°
2026-05-05 17:06 9.42440 76.95406 21182 ft 372 kts 193°
2026-05-05 17:06 9.39910 76.94794 20727 ft 369 kts 193°
2026-05-05 17:06 9.37431 76.94195 20280 ft 366 kts 193°
2026-05-05 17:06 9.34932 76.93592 19827 ft 364 kts 193°
2026-05-05 17:07 9.32484 76.93002 19391 ft 361 kts 193°
2026-05-05 17:07 9.30056 76.92418 18957 ft 359 kts 193°
2026-05-05 17:07 9.27604 76.91828 18512 ft 356 kts 193°
2026-05-05 17:07 9.25213 76.91254 18075 ft 354 kts 193°
2026-05-05 17:08 9.22802 76.90674 17636 ft 352 kts 193°
2026-05-05 17:08 9.20435 76.90105 17203 ft 349 kts 193°
2026-05-05 17:08 9.18087 76.89540 16773 ft 347 kts 193°
2026-05-05 17:08 9.15718 76.88972 16341 ft 345 kts 193°
2026-05-05 17:09 9.13402 76.88418 15915 ft 342 kts 193°
2026-05-05 17:09 9.11067 76.87858 15480 ft 340 kts 193°
2026-05-05 17:09 9.08775 76.87308 15044 ft 338 kts 193°
2026-05-05 17:09 9.06502 76.86761 14614 ft 336 kts 193°
2026-05-05 17:10 9.04236 76.86214 14186 ft 334 kts 193°
2026-05-05 17:10 9.01958 76.85666 13749 ft 332 kts 193°
2026-05-05 17:10 8.99719 76.85126 13311 ft 331 kts 193°
2026-05-05 17:10 8.97461 76.84581 12875 ft 329 kts 193°
2026-05-05 17:11 8.95232 76.84044 12447 ft 328 kts 193°
2026-05-05 17:11 8.93014 76.83510 12022 ft 326 kts 193°
2026-05-05 17:11 8.90796 76.82976 11597 ft 324 kts 193°
2026-05-05 17:11 8.88627 76.82455 11348 ft 316 kts 193°
2026-05-05 17:12 8.86526 76.81950 11156 ft 307 kts 193°
2026-05-05 17:12 8.84439 76.81480 10831 ft 303 kts 187°
2026-05-05 17:12 8.82358 76.81564 10415 ft 301 kts 165°
2026-05-05 17:12 8.80434 76.82387 10037 ft 297 kts 146°
2026-05-05 17:13 8.78725 76.83543 9654 ft 295 kts 143°
2026-05-05 17:13 8.77047 76.84723 9270 ft 294 kts 143°
2026-05-05 17:13 8.75351 76.85915 8883 ft 293 kts 144°
2026-05-05 17:13 8.73681 76.87079 8502 ft 292 kts 144°
2026-05-05 17:14 8.72011 76.88232 8119 ft 291 kts 145°
2026-05-05 17:14 8.70319 76.89389 7740 ft 290 kts 145°
2026-05-05 17:14 8.68650 76.90533 7355 ft 289 kts 146°
2026-05-05 17:14 8.66990 76.91660 6967 ft 288 kts 146°
2026-05-05 17:15 8.65332 76.92783 6589 ft 287 kts 146°
2026-05-05 17:15 8.63665 76.93920 6221 ft 285 kts 146°
2026-05-05 17:15 8.62036 76.95034 5867 ft 283 kts 146°
2026-05-05 17:15 8.60410 76.96145 5507 ft 282 kts 146°
2026-05-05 17:16 8.58793 76.97249 5150 ft 280 kts 146°
2026-05-05 17:16 8.57166 76.98360 4782 ft 278 kts 146°
2026-05-05 17:16 8.55566 76.99451 4425 ft 277 kts 146°
2026-05-05 17:16 8.53975 77.00541 4066 ft 276 kts 147°
2026-05-05 17:17 8.52393 77.01617 3725 ft 274 kts 146°
2026-05-05 17:17 8.50806 77.02704 3403 ft 272 kts 147°
2026-05-05 17:17 8.49249 77.03767 3058 ft 271 kts 147°
2026-05-05 17:17 8.47691 77.04832 2712 ft 270 kts 147°
2026-05-05 17:18 8.46119 77.05902 2361 ft 269 kts 147°
2026-05-05 17:18 8.44588 77.06943 2192 ft 260 kts 147°
2026-05-05 17:18 8.43120 77.07947 2047 ft 250 kts 147°
2026-05-05 17:18 8.41721 77.08906 2017 ft 236 kts 149°
2026-05-05 17:19 8.40287 77.09512 1970 ft 215 kts 182°
2026-05-05 17:19 8.38904 77.09172 1994 ft 198 kts 207°
2026-05-05 17:19 8.37657 77.08587 2002 ft 198 kts 207°
2026-05-05 17:19 8.36400 77.08020 2001 ft 199 kts 207°
2026-05-05 17:20 8.35286 77.07217 1986 ft 195 kts 238°
2026-05-05 17:20 8.34896 77.05943 1997 ft 194 kts 275°
2026-05-05 17:20 8.35367 77.04656 2011 ft 197 kts 304°
2026-05-05 17:20 8.36257 77.03607 2009 ft 198 kts 313°
2026-05-05 17:21 8.37250 77.02653 2002 ft 198 kts 315°
2026-05-05 17:21 8.38266 77.01697 1998 ft 198 kts 314°
2026-05-05 17:21 8.39254 77.00748 2061 ft 190 kts 314°
2026-05-05 17:22 8.40986 76.99058 1687 ft 159 kts 313°
2026-05-05 17:22 8.41751 76.98309 1456 ft 145 kts 313°
2026-05-05 17:22 8.42444 76.97632 1225 ft 135 kts 313°
2026-05-05 17:22 8.43116 76.96973 1041 ft 132 kts 313°
2026-05-05 17:23 8.43778 76.96327 928 ft 132 kts 313°
2026-05-05 17:23 8.44438 76.95684 800 ft 132 kts 314°
2026-05-05 17:23 8.45096 76.95037 612 ft 132 kts 315°
2026-05-05 17:23 8.45758 76.94387 428 ft 131 kts 315°
2026-05-05 17:24 8.46413 76.93751 271 ft 131 kts 316°
2026-05-05 17:24 8.47074 76.93108 92 ft 130 kts 316°
2026-05-05 17:24 8.47682 76.92512 38 ft 104 kts 317°
2026-05-05 17:24 8.48086 76.92119 32 ft 60 kts 315°
2026-05-05 17:25 8.48231 76.91978 32 ft 55 kts 316°
2026-05-05 17:25 8.48356 76.91857 35 ft 52 kts 316°
2026-05-05 17:25 8.48636 76.91582 40 ft 36 kts 316°
2026-05-05 17:25 8.48793 76.91474 41 ft 17 kts 19°
2026-05-05 17:26 8.48851 76.91533 40 ft 11 kts 51°
2026-05-05 17:26 8.48847 76.91604 40 ft 11 kts 135°
2026-05-05 17:26 8.48785 76.91665 41 ft 12 kts 135°
2026-05-05 17:26 8.48718 76.91730 40 ft 13 kts 137°
2026-05-05 17:27 8.48635 76.91809 40 ft 18 kts 135°
2026-05-05 17:27 8.48533 76.91909 38 ft 17 kts 136°
2026-05-05 17:27 8.48478 76.91989 37 ft 13 kts 80°
2026-05-05 17:27 8.48533 76.92058 39 ft 12 kts 46°
2026-05-05 17:28 8.48590 76.92115 41 ft 10 kts 46°
2026-05-05 17:28 8.48629 76.92156 43 ft 3 kts 46°
2026-05-05 17:28 8.48633 76.92160 43 ft 0 kts 46°